[[{"header":{"parameterUnit":"m.s-1","parameterCategory":1,"la1":30.2991,"la2":30.254,"lo1":-89.0895,"lo2":-89.0444,"dx":0.0017,"dy":0.0017,"nx":28,"ny":28,"refTime":"2022-12-09T15:00:00:Z","depth":0,"parameterNumber":2,"parameterNumberName":"U-component_of_WINDS"},"data":[0,0,0,0,0,0,0,0,0,0,0,0,0,0,0,0,0,0,0,0,0,0,0,0,0,0,0,0,0,0,0,0,0,0,0,0,0,0,0,0,0,0,0,0,0,0,0,0,0,0,0,0,0,0,0,0,0,0,-1.5771,-1.5771,0,-1.5771,-1.5771,-1.5771,-1.5721,-1.5719,-1.5718,-1.5717,-1.5719,-1.572,-1.5722,0,0,0,0,0,0,0,0,0,0,0,0,0,-1.5731,-1.5732,-1.5771,-1.5771,-1.5771,-1.5771,-1.5771,-1.5771,-1.5721,-1.5719,-1.5718,-1.5716,-1.5719,-1.572,-1.5722,0,0,0,0,0,0,0,0,0,0,0,0,0,-1.5741,-1.5732,-1.5771,-1.5746,-1.5744,-1.5771,-1.5771,-1.5771,-1.5721,-1.5719,-1.5717,-1.5715,-1.5718,-1.572,-1.5722,-1.5774,0,0,-1.5728,-1.5729,0,0,0,0,0,0,0,0,-1.5741,-1.5743,-1.575,-1.5748,-1.5745,-1.5744,-1.5758,-1.5772,-1.5722,-1.573,-1.5717,-1.5714,-1.5729,-1.573,-1.5735,-1.5775,-1.5775,-1.5728,-1.5729,-1.573,-1.5731,0,0,0,0,0,0,0,-1.574,-1.5743,-1.5771,-1.575,-1.5747,-1.5736,-1.5735,-1.576,-1.5741,-1.5729,-1.5725,-1.5726,-1.5728,-1.5733,-1.5734,-1.5775,-1.5728,-1.573,-1.5731,-1.5732,-1.586,-1.5862,0,0,0,0,0,0,-1.5742,-1.5742,-1.5771,-1.5771,-1.5738,-1.5738,-1.5737,-1.5746,-1.574,-1.5737,-1.5728,-1.5723,-1.573,-1.5732,-1.5734,-1.5796,-1.573,-1.5732,-1.5733,-1.5857,-1.586,-1.5862,0,0,0,0,0,0,-1.5742,-1.5746,-1.5771,-1.5756,-1.5758,-1.5741,-1.5751,-1.5747,-1.5752,-1.5739,-1.5736,-1.5736,-1.5729,-1.5731,-1.5765,-1.5795,-1.5733,-1.5735,-1.5855,-1.5858,-1.5861,-1.5919,0,0,0,0,0,0,-1.5741,-1.5746,-1.5764,-1.5757,-1.5759,-1.5801,-1.5753,-1.5749,-1.5756,-1.575,-1.5746,-1.5744,-1.5728,-1.5762,-1.5767,-1.5797,-1.5736,-1.5852,-1.5856,-1.586,-1.5914,-1.5924,-1.5932,0,0,0,0,0,-1.574,-1.5781,-1.5765,-1.5769,-1.5782,-1.5803,-1.5804,-1.5784,-1.5758,-1.5778,-1.577,-1.5744,-1.5791,-1.5766,-1.5771,-1.5802,-1.585,-1.5855,-1.586,-1.591,-1.5922,-1.5932,0,0,0,0,0,0,-1.5792,-1.5779,-1.5762,-1.5801,-1.5804,-1.5794,-1.5817,-1.5797,-1.5806,-1.5801,-1.5776,-1.5776,-1.5814,-1.5811,-1.5784,-1.5853,-1.5816,-1.5822,-1.5853,-1.5864,-1.5873,-1.5872,-1.5738,0,0,0,0,0,-1.5809,-1.5826,-1.5813,-1.585,-1.5852,-1.5835,-1.5843,-1.5827,-1.5829,-1.5829,-1.5824,-1.5827,-1.5842,-1.5853,-1.5867,-1.5914,-1.5913,-1.5938,-1.5947,-1.5954,-1.5959,-1.5986,-1.5997,-1.5879,-1.5879,-1.5879,0,0,-1.5842,-1.5837,-1.5849,-1.586,-1.586,-1.5879,-1.5836,-1.5858,-1.5872,-1.5833,-1.5864,-1.5861,-1.5863,-1.5904,-1.5921,-1.5903,-1.5992,-1.596,-1.5966,-1.5968,-1.5992,-1.6003,-1.6013,-1.5882,-1.5881,-1.5881,0,0,-1.5913,-1.5911,-1.5941,-1.5942,-1.5942,-1.5931,-1.5939,-1.5933,-1.5929,-1.596,-1.5931,-1.5949,-1.5976,-1.5979,-1.5984,-1.6059,-1.6037,-1.6065,-1.611,-1.6136,-1.6146,-1.6154,-1.6181,-1.6191,-1.607,-1.607,-1.607,0,-1.5955,-1.5982,-1.596,-1.5984,-1.599,-1.5956,-1.5987,-1.5989,-1.5994,-1.6,-1.5979,-1.6013,-1.6012,-1.6054,-1.6073,-1.6078,-1.6087,-1.6064,-1.6146,-1.6154,-1.6161,-1.6187,-1.6197,-1.6074,-1.6073,-1.6073,-1.6073,0,-1.6034,-1.6053,-1.6078,-1.6083,-1.6093,-1.612,-1.6103,-1.6116,-1.61,-1.6092,-1.6125,-1.6123,-1.6136,-1.6145,-1.613,-1.6185,-1.6174,-1.615,-1.6112,-1.6176,-1.62,-1.6209,-1.6079,-1.6077,-1.6076,-1.6076,0,0,-1.6136,-1.613,-1.6139,-1.6142,-1.6141,-1.6156,-1.6184,-1.6196,-1.6207,-1.6213,-1.6236,-1.6261,-1.6239,-1.6245,-1.623,-1.6253,-1.6314,-1.6226,-1.6226,-1.6243,-1.6376,-1.6393,-1.6405,-1.6299,-1.6301,-1.6302,-1.6376,0,-1.6205,-1.6249,-1.6231,-1.6278,-1.6296,-1.6265,-1.6289,-1.6292,-1.6286,-1.6302,-1.6295,-1.6313,-1.6283,-1.6287,-1.6308,-1.6302,-1.634,-1.6296,-1.6321,-1.6322,-1.632,-1.6417,-1.6435,-1.6504,-1.6385,-1.6386,-1.6387,0,-1.629,-1.6299,-1.6347,-1.6345,-1.6352,-1.6373,-1.6384,-1.6399,-1.6403,-1.6397,-1.6405,-1.6386,-1.6414,-1.6378,-1.6416,-1.6387,-1.6397,-1.6396,-1.6398,-1.6399,-1.6358,-1.642,-1.6526,-1.6536,-1.6402,-1.6401,-1.6399,0,-1.636,-1.6384,-1.6416,-1.642,-1.6417,-1.6433,-1.6433,-1.6435,-1.6444,-1.6455,-1.646,-1.6474,-1.6482,-1.6494,-1.648,-1.6454,-1.6521,-1.6483,-1.6518,-1.6518,-1.6532,-1.6531,-1.664,-1.6539,-1.6539,-1.6539,-1.6539,0,-1.6438,-1.6469,-1.6448,-1.6468,-1.6502,-1.6482,-1.6517,-1.6514,-1.6516,-1.6536,-1.6511,-1.6531,-1.6511,-1.6529,-1.6519,-1.6553,-1.6557,-1.6553,-1.655,-1.6555,-1.6556,-1.656,-1.6555,-1.6542,-1.6541,-1.654,-1.654,0,-1.652,-1.6508,-1.6541,-1.6537,-1.6536,-1.6562,-1.6559,-1.6578,-1.6571,-1.6596,-1.6601,-1.659,-1.6611,-1.6598,-1.6619,-1.6612,-1.6657,-1.6647,-1.6655,-1.6652,-1.6687,-1.6684,-1.6802,-1.6817,-1.6708,-1.6709,-1.671,0,-1.657,-1.6594,-1.6592,-1.6603,-1.6605,-1.6623,-1.6633,-1.6615,-1.6626,-1.6633,-1.6652,-1.667,-1.6683,-1.6718,-1.6712,-1.6729,-1.6719,-1.676,-1.6721,-1.6726,-1.672,-1.6718,-1.6721,-1.6767,-1.6768,-1.6769,-1.677,0,-1.6661,-1.6654,-1.6668,-1.6681,-1.6693,-1.6703,-1.671,-1.6721,-1.6704,-1.6718,-1.6738,-1.6749,-1.677,-1.6789,-1.6803,-1.6804,-1.6785,-1.6782,-1.6791,-1.6796,-1.68,-1.6798,-1.6676,-1.6779,-1.6778,-1.6778,-1.6777,-1.6777,-1.6729,-1.6748,-1.6751,-1.6768,-1.6772,-1.678,-1.6798,-1.6794,-1.681,-1.6825,-1.6815,-1.6839,-1.6844,-1.6861,-1.6866,-1.6885,-1.6869,-1.6882,-1.6885,-1.6888,-1.6893,-1.6798,-1.6888,-1.6888,-1.6887,-1.6887,-1.6887,0,-1.6818,-1.6818,-1.6834,-1.6846,-1.686,-1.684,-1.6848,-1.6862,-1.6883,-1.6889,-1.6904,-1.6928,-1.6947,-1.6944,-1.6961,-1.6977,-1.6969,-1.6983,-1.6981,-1.6982,-1.6906,-1.6897,-1.6989,-1.6989,-1.6989,-1.6989,-1.6989,-1.6989,-1.6865,-1.6898,-1.6892,-1.6927,-1.6927,-1.695,-1.6957,-1.6965,-1.697,-1.6998,-1.7013,-1.7011,-1.7014,-1.7032,-1.7049,-1.7047,-1.7055,-1.7072,-1.7068,-1.6997,-1.6987,-1.6977,-1.6968,-1.7074,-1.7074,-1.7141,-1.7142,-1.7142]},{"header":{"parameterUnit":"m.s-1","parameterCategory":1,"la1":30.2991,"la2":30.254,"lo1":-89.0895,"lo2":-89.0444,"dx":0.0017,"dy":0.0017,"nx":28,"ny":28,"refTime":"2022-12-09T15:00:00:Z","depth":0,"parameterNumber":3,"parameterNumberName":"V-component_of_WINDS"},"data":[0,0,0,0,0,0,0,0,0,0,0,0,0,0,0,0,0,0,0,0,0,0,0,0,0,0,0,0,0,0,0,0,0,0,0,0,0,0,0,0,0,0,0,0,0,0,0,0,0,0,0,0,0,0,0,0,0,0,0.9663,0.9663,0,0.9701,0.9702,0.9702,0.9739,0.9739,0.974,0.974,0.9778,0.9778,0.9779,0,0,0,0,0,0,0,0,0,0,0,0,0,0.962,0.9621,0.9663,0.9663,0.9664,0.9701,0.9702,0.9702,0.9739,0.9739,0.974,0.974,0.9777,0.9778,0.9779,0,0,0,0,0,0,0,0,0,0,0,0,0,0.9647,0.9621,0.9663,0.9687,0.9689,0.9701,0.9702,0.9702,0.9739,0.9739,0.974,0.9741,0.9777,0.9778,0.9779,0.977,0,0,0.9781,0.9782,0,0,0,0,0,0,0,0,0.9645,0.9648,0.9683,0.9685,0.9688,0.9716,0.97,0.9725,0.9738,0.972,0.974,0.9741,0.9756,0.9759,0.9765,0.9771,0.9773,0.9781,0.9782,0.9782,0.9782,0,0,0,0,0,0,0,0.9643,0.9647,0.9678,0.9683,0.9686,0.9695,0.97,0.9705,0.9734,0.9721,0.9724,0.9728,0.9758,0.9764,0.9766,0.9774,0.9781,0.9782,0.9783,0.9783,0.9776,0.9775,0,0,0,0,0,0,0.9638,0.9645,0.9677,0.9679,0.9668,0.9695,0.97,0.9706,0.9734,0.9739,0.9728,0.973,0.9762,0.9765,0.9767,0.9759,0.9782,0.9783,0.9783,0.9776,0.9776,0.9775,0,0,0,0,0,0,0.9637,0.964,0.9675,0.9663,0.9668,0.9695,0.9702,0.9707,0.9712,0.9738,0.9743,0.9728,0.9763,0.9766,0.9769,0.9761,0.9783,0.9784,0.9777,0.9776,0.9775,0.9742,0,0,0,0,0,0,0.9635,0.964,0.9637,0.9663,0.9668,0.9677,0.9701,0.9707,0.9714,0.9717,0.974,0.9745,0.9763,0.9768,0.977,0.9762,0.9785,0.9778,0.9777,0.9776,0.9744,0.974,0.9736,0,0,0,0,0,0.9634,0.9625,0.9637,0.964,0.9665,0.9676,0.968,0.9702,0.9713,0.971,0.9727,0.9744,0.9761,0.9768,0.9771,0.9763,0.9779,0.9777,0.9776,0.9746,0.9741,0.9736,0,0,0,0,0,0,0.9597,0.9629,0.9642,0.9642,0.9656,0.9683,0.968,0.9696,0.9707,0.9709,0.9735,0.974,0.9741,0.9752,0.9759,0.9756,0.9772,0.9771,0.9748,0.9744,0.974,0.9738,0.9785,0,0,0,0,0,0.9589,0.9596,0.9623,0.962,0.9627,0.9652,0.9658,0.9673,0.9689,0.9695,0.9712,0.9726,0.9735,0.974,0.975,0.9746,0.9751,0.9742,0.9738,0.9735,0.9734,0.9733,0.9729,0.977,0.977,0.977,0,0,0.9573,0.9591,0.9593,0.9613,0.9627,0.9633,0.9657,0.9662,0.9667,0.9696,0.97,0.9713,0.9731,0.973,0.9731,0.974,0.9724,0.9733,0.973,0.9731,0.9731,0.9727,0.9724,0.9769,0.9769,0.9769,0,0,0.9545,0.956,0.9559,0.9572,0.9592,0.9609,0.9609,0.9633,0.9643,0.9648,0.967,0.9676,0.969,0.9702,0.971,0.9688,0.9704,0.969,0.967,0.9669,0.9666,0.9663,0.9656,0.9653,0.9689,0.9689,0.9688,0,0.9522,0.9532,0.9557,0.9561,0.9569,0.9597,0.9597,0.9608,0.9629,0.9634,0.9644,0.9663,0.9677,0.968,0.9674,0.968,0.968,0.9687,0.9665,0.9662,0.966,0.9653,0.965,0.9687,0.9687,0.9687,0.9687,0,0.9503,0.951,0.9507,0.9528,0.9536,0.9538,0.9562,0.9567,0.9582,0.9598,0.9603,0.962,0.9634,0.9636,0.965,0.9641,0.9646,0.966,0.9677,0.9654,0.9648,0.9645,0.9684,0.9685,0.9685,0.9686,0,0,0.9453,0.9489,0.9487,0.9497,0.9522,0.9527,0.953,0.9544,0.9548,0.9562,0.9565,0.9577,0.959,0.9599,0.9615,0.9614,0.9596,0.9628,0.9629,0.9622,0.9588,0.9577,0.9574,0.9607,0.9607,0.9607,0.9586,0,0.943,0.9438,0.9461,0.9462,0.9468,0.9495,0.9498,0.9512,0.9527,0.9535,0.9551,0.9559,0.9576,0.9581,0.9582,0.9598,0.959,0.96,0.961,0.961,0.9605,0.9571,0.956,0.9539,0.9584,0.9584,0.9583,0,0.9405,0.9418,0.942,0.9444,0.9448,0.945,0.9465,0.9472,0.949,0.95,0.9511,0.9529,0.9533,0.9549,0.9556,0.9562,0.9568,0.9577,0.9576,0.9578,0.9595,0.9571,0.9534,0.9531,0.958,0.958,0.958,0,0.9369,0.9387,0.9391,0.9398,0.9427,0.9428,0.944,0.9458,0.9465,0.9478,0.9483,0.9496,0.9503,0.9513,0.9534,0.9543,0.9538,0.9556,0.9547,0.9546,0.9545,0.9544,0.9507,0.9548,0.9548,0.9548,0.9548,0,0.9341,0.9341,0.9375,0.9377,0.9378,0.9404,0.9404,0.9418,0.9434,0.9439,0.9463,0.9467,0.9495,0.9502,0.9518,0.9521,0.9524,0.9533,0.9537,0.9531,0.953,0.9535,0.9537,0.9547,0.9547,0.9547,0.9547,0,0.9301,0.9324,0.9329,0.9356,0.9363,0.9363,0.9386,0.9389,0.9405,0.9411,0.9414,0.944,0.945,0.9472,0.9487,0.9499,0.9497,0.9505,0.9492,0.9495,0.9485,0.9485,0.945,0.9446,0.9489,0.9488,0.9488,0,0.9282,0.9283,0.931,0.9316,0.9327,0.9335,0.9343,0.9368,0.9375,0.9396,0.9396,0.9408,0.9419,0.9434,0.9453,0.9465,0.9474,0.946,0.9476,0.947,0.9474,0.9474,0.9474,0.9457,0.9456,0.9456,0.9455,0,0.9245,0.9257,0.9268,0.9282,0.9291,0.9304,0.9318,0.9321,0.9349,0.9356,0.9367,0.9375,0.9392,0.9403,0.9419,0.943,0.9448,0.9451,0.9449,0.9443,0.9435,0.9439,0.9483,0.9451,0.9452,0.9452,0.9452,0.9452,0.9215,0.9218,0.9238,0.9249,0.9262,0.9275,0.9279,0.9296,0.9306,0.9322,0.9336,0.9346,0.9364,0.9386,0.9397,0.9404,0.9413,0.9411,0.941,0.941,0.9407,0.9434,0.9407,0.9407,0.9407,0.9408,0.9408,0,0.9181,0.9195,0.9205,0.9224,0.9233,0.9249,0.9266,0.9272,0.928,0.9296,0.9306,0.9319,0.933,0.9351,0.9364,0.9366,0.9375,0.9369,0.9369,0.9372,0.9398,0.9398,0.9362,0.9362,0.9362,0.9362,0.9362,0.9362,0.9163,0.9168,0.9182,0.9194,0.9208,0.9218,0.9226,0.9238,0.925,0.9264,0.9274,0.9287,0.9305,0.932,0.9331,0.9337,0.9341,0.9332,0.9341,0.9365,0.937,0.9374,0.9374,0.9333,0.9333,0.9313,0.9313,0.9313]}]]